Dewpoint
57 58 60 63 60 60 64 62 63 63 60 60 60 61 60 61 62 64 64 62 62 64 63 63 62 62 66 60 63 64 63 64 59 62 62 61 60 60 61 61 62 62 60
56 56 58 63 58 62 62 63 63 62 59 57 61 57 58 60 62 61 60 60 60 60 62 61 62 63 63 65 66 64 62 64 59 58 60 60 60 60 60 60 61 62 60
53 54 58 60 62 62 62 62 62 62 58 57 59 58 57 58 60 60 59 59 61 61 61 62 62 62 63 62 62 62 62 61 60 59 58 59 60 61 60 60 60 60 60
51 54 57 62 61 62 62 62 63 62 60 57 59 57 58 58 58 58 60 61 61 61 62 63 63 63 61 62 62 61 60 60 59 58 58 58 59 59 59 58 57 59 58
51 53 57 62 61 61 60 61 62 62 59 57 58 59 60 60 59 60 61 60 60 61 62 62 64 62 59 60 63 61 60 59 58 58 57 57 57 57 57 58 57 58 57
52 53 56 60 58 61 61 61 62 61 61 61 60 60 60 57 52 54 59 60 61 61 62 63 62 60 57 53 56 57 59 59 58 57 57 56 57 58 58 57 57 57 54
51 54 55 59 58 62 60 60 61 62 63 63 62 61 61 60 51 52 54 62 62 63 62 63 62 61 61 60 54 53 53 53 55 58 57 58 58 58 58 57 56 57 56
50 52 55 55 57 60 62 62 63 62 63 61 61 62 61 58 50 50 53 62 62 62 62 62 62 62 61 61 61 60 60 60 60 61 60 60 60 59 57 55 57 61 58
48 51 53 53 57 59 60 63 65 62 64 64 61 60 61 59 48 47 54 61 62 62 62 62 61 60 49 51 59 58 58 58 52 52 52 51 49 52 57 58 59 56 53
47 48 52 53 55 56 59 64 65 65 64 63 62 60 55 61 46 46 53 59 62 61 61 59 50 56 47 51 60 58 58 58 59 60 59 54 57 56 52 62 59 54 53
47 46 51 53 56 58 59 65 65 63 63 63 60 60 59 59 58 46 49 61 60 62 59 59 56 46 48 50 54 63 60 60 57 61 61 62 62 61 59 61 61 63 57
47 46 50 55 53 57 60 63 64 63 62 63 61 59 59 60 52 46 48 54 55 59 59 59 55 44 46 47 54 47 48 54 61 60 61 60 60 59 58 60 64 62 59
48 49 51 55 53 56 58 61 61 62 57 62 63 59 59 60 59 48 47 47 50 60 62 52 44 43 43 47 45 46 48 58 58 58 55 53 53 56 61 60 58 57 58
48 51 52 55 53 55 53 57 56 55 51 54 58 58 58 58 59 60 57 59 49 54 50 54 53 49 46 51 51 52 56 54 52 52 53 53 55 56 55 55 53 52 49
50 51 52 52 55 55 52 52 52 57 51 47 55 58 58 57 56 54 56 58 59 56 57 58 57 55 54 54 54 54 54 54 54 54 53 52 51 52 50 51 50 49 47
52 49 49 49 52 54 52 50 43 45 46 45 44 48 53 49 46 46 48 47 45 47 56 55 54 52 52 52 52 52 53 52 53 53 51 49 46 46 47 48 49 48 47
55 54 48 46 50 50 53 52 48 51 46 46 43 44 45 49 45 43 43 42 44 48 56 57 53 51 48 48 48 49 50 51 54 50 49 49 46 46 46 47 47 47 47
55 45 50 46 46 46 50 52 50 49 48 50 46 48 44 43 42 41 41 46 55 52 55 54 52 51 49 47 46 48 48 50 50 50 50 51 51 47 46 46 46 47 47
52 48 49 47 44 44 45 47 48 48 47 44 47 47 43 39 39 39 40 51 52 54 55 53 50 50 49 46 47 47 50 50 50 52 52 52 52 50 49 46 45 41 44
51 44 45 46 44 44 43 43 43 43 45 44 44 47 50 48 51 52 52 52 46 44 44 44 44 46 47 46 46 46 44 50 51 53 52 52 52 51 48 47 46 45 46
48 48 43 45 44 43 42 43 42 41 42 42 43 44 42 49 47 48 50 51 50 47 45 44 42 43 45 47 47 47 47 48 50 50 51 52 52 50 52 50 48 47 46
48 48 47 45 44 42 42 42 43 41 41 41 42 41 38 48 44 44 46 48 48 49 46 48 44 43 43 43 45 47 45 45 48 50 50 50 50 51 50 49 47 48 46
47 48 48 48 45 43 45 41 41 42 41 41 41 41 46 48 46 44 45 48 51 52 52 52 49 46 46 47 47 46 44 45 46 48 49 49 49 49 50 51 47 47 46
49 48 48 49 46 45 44 46 41 39 41 41 43 42 45 48 48 48 46 46 47 48 50 50 50 48 49 50 48 46 46 46 46 45 47 48 48 47 48 46 46 46 48
48 50 50 52 49 48 46 46 47 40 41 41 43 43 42 47 48 49 50 49 49 49 50 50 51 50 50 49 48 47 44 34 45 39 43 47 48 49 46 45 47 50 48
48 49 49 50 51 49 48 48 49 49 44 45 45 46 45 45 44 49 51 51 50 49 50 52 53 53 52 51 51 45 36 35 44 36 46 48 46 46 46 48 47 49 46
Lifted_Index
-0 -0 -1 -1 -1 -1 -1 -2 -2 -2 -1 -1 -1 -1 -1 -2 -2 -2 -2 -2 -2 -2 -2 -2 -2 -2 -2 -2 -2 -2 -2 -1 -1 0 1 1 2 3 3 4 4 4 4
0 0 -0 -1 -1 -1 -1 -1 -2 -1 -1 -0 -1 -1 -1 -1 -2 -2 -2 -2 -2 -2 -2 -2 -2 -2 -2 -2 -2 -1 -1 -0 0 1 2 2 3 3 4 4 4 4 4
1 0 -0 -1 -1 -1 -1 -1 -1 -1 -1 -0 -0 -0 -0 -1 -1 -1 -2 -2 -2 -2 -2 -2 -2 -2 -1 -1 -0 -0 0 1 2 2 3 3 4 4 4 4 4 4 4
1 1 -0 -1 -1 -1 -1 -1 -1 -1 -1 -1 -0 -0 -0 -0 -1 -1 -1 -1 -1 -1 -2 -2 -1 -1 -0 0 0 1 2 2 2 3 3 3 4 4 4 4 4 4 4
1 1 -1 -1 -1 -1 -1 -1 -1 -1 -1 -1 -1 -0 -0 -0 0 -0 -0 -1 -1 -1 -2 -1 -1 -0 0 0 0 1 2 2 3 3 3 3 3 3 4 4 4 4 4
1 1 -1 -1 -1 -1 -1 -1 -1 -1 -1 -1 -1 -0 -0 0 1 1 0 -0 -1 -1 -1 -1 -1 0 0 0 1 1 2 2 3 3 3 3 3 3 4 4 3 3 4
1 0 -1 -1 -1 -1 -1 -1 -1 -1 -1 -1 -0 -0 0 1 2 1 1 -0 -1 -1 -1 -0 0 0 1 1 1 2 2 2 3 3 3 3 3 3 3 3 3 3 3
1 0 -1 -1 -1 -1 -1 -1 -1 -1 -1 -0 0 0 1 2 2 1 1 -0 -0 -0 -0 0 1 1 1 1 2 2 2 2 3 3 3 3 3 3 3 3 3 3 3
2 1 -0 -1 -1 -1 -1 -2 -2 -1 -1 -0 1 1 1 2 2 1 0 -0 -0 -0 0 1 1 1 1 2 2 2 2 3 3 3 3 3 2 2 3 2 2 2 2
2 1 0 -0 -1 -1 -1 -2 -2 -2 -1 -0 1 2 2 2 2 1 1 0 -0 0 1 1 2 2 2 2 2 2 2 2 2 2 2 2 2 2 2 1 1 1 1
2 2 1 0 -0 -1 -1 -2 -2 -2 -1 -0 1 2 2 2 2 2 1 1 0 1 1 2 2 2 2 2 2 2 2 2 2 1 1 1 1 1 1 0 0 0 1
2 2 1 1 0 -0 -1 -2 -2 -2 -1 -1 0 1 2 2 2 2 1 1 1 1 1 2 2 2 2 2 1 1 0 1 0 0 0 1 1 1 0 0 0 0 1
2 1 1 1 0 0 -1 -1 -2 -1 -1 -1 -1 0 1 1 1 1 1 1 0 0 1 1 2 2 2 2 1 0 0 0 0 0 1 1 2 1 1 1 1 1 1
1 1 1 0 0 1 0 -1 -1 -1 0 -0 -1 -1 -0 -0 0 1 0 0 0 -0 0 1 2 2 2 2 2 1 1 1 1 1 2 2 2 2 2 3 3 3 3
1 1 1 0 0 1 1 1 0 0 1 1 0 -1 -1 -0 -0 0 0 -0 -0 0 1 1 2 2 2 2 2 2 1 1 1 1 2 2 3 3 3 4 4 4 4
1 1 1 1 0 0 0 1 1 1 1 2 2 1 -0 -0 -0 0 0 -0 -0 0 0 0 1 1 2 2 2 1 1 1 1 1 2 3 3 4 4 4 4 4 4
1 1 1 2 1 0 0 0 1 2 2 2 3 2 1 1 0 0 0 -0 -0 -0 -0 -1 -0 1 1 2 2 1 1 1 1 1 2 2 3 3 4 4 4 4 4
1 1 2 2 2 1 1 0 1 1 2 3 3 3 2 2 2 2 1 1 0 0 -0 -1 -0 0 1 2 2 1 1 1 1 1 1 2 2 3 3 4 4 4 4
1 1 2 2 2 2 2 1 1 1 2 3 3 3 3 3 3 3 3 2 2 1 1 1 1 1 2 2 2 2 2 1 1 1 1 1 2 2 3 4 4 4 4
1 1 2 2 2 3 3 2 2 2 2 3 3 3 4 4 4 4 4 4 3 3 3 3 3 2 2 2 2 2 2 1 1 1 1 1 1 2 2 3 4 4 4
0 1 2 2 2 3 3 3 3 3 3 3 3 3 3 4 4 4 4 4 4 4 4 4 4 3 3 3 2 2 2 2 1 1 1 1 2 2 2 3 3 4 4
-0 0 1 1 2 2 3 3 3 3 3 3 3 3 3 3 4 4 4 3 3 3 3 3 3 3 3 3 3 2 2 2 2 2 2 2 2 2 2 2 3 4 4
-1 -1 0 1 1 2 2 3 3 3 3 3 3 3 3 3 3 3 3 3 2 2 2 2 2 3 3 2 2 2 3 3 3 3 3 3 3 3 3 3 4 4 4
-1 -1 -1 -0 0 1 2 2 3 3 3 3 3 3 3 2 2 2 3 2 2 2 1 1 2 2 2 2 2 3 3 3 3 4 4 3 3 3 3 4 4 5 5
-1 -1 -1 -1 -0 0 1 1 2 2 3 3 2 2 2 2 2 2 2 2 2 1 1 1 1 1 2 2 2 3 3 4 4 4 4 4 4 4 4 4 5 5 5
-1 -1 -1 -1 -1 -0 0 1 1 1 2 2 2 2 2 2 2 1 1 1 1 1 1 0 0 1 1 1 2 3 3 4 4 5 5 4 4 4 4 4 5 5 5